Location: Unspecified
(0.0000°N, 0.0000°E)
Time: 20:19:06
(UTC+00:00)

Altair - Visible Passes

Search period start: 07 December 2016 00:00
Search period end: 17 December 2016 00:00
Orbit: 1501 x 1683 km, 47.2° (Epoch: 06 December)

Date Brightness Start Highest point End Pass type
(mag) Time Alt. Az. Time Alt. Az. Time Alt. Az.
07 Dec 8.6 04:27:17 10° SSW 04:36:38 46° SE 04:45:34 10° ENE visible
07 Dec 10.0 19:24:28 10° W 19:30:27 18° SW 19:36:36 10° S visible
08 Dec 8.7 04:02:17 10° SSW 04:11:26 41° SE 04:20:12 10° ENE visible
08 Dec 9.9 18:58:36 10° W 19:05:11 20° SW 19:11:58 10° S visible
09 Dec 8.9 03:37:21 10° SSW 03:46:14 37° SE 03:54:47 10° ENE visible
09 Dec 9.9 18:32:50 10° W 18:39:56 23° SW 18:47:16 10° S visible
10 Dec 9.0 03:12:25 10° SSW 03:21:02 33° SE 03:29:19 10° ENE visible
10 Dec 7.6 05:16:11 10° SW 05:25:41 54° NW 05:34:51 10° NNE visible
10 Dec 9.9 18:07:11 10° W 18:14:42 26° SW 18:22:29 10° S visible
11 Dec 9.1 02:47:32 10° S 02:55:49 29° SE 03:03:48 10° ENE visible
11 Dec 7.5 04:50:51 10° SW 05:00:32 61° NW 05:09:51 10° NNE visible
12 Dec 9.2 02:22:43 10° S 02:30:35 26° SE 02:38:12 10° E visible
12 Dec 7.5 04:25:32 10° SW 04:35:23 68° NW 04:44:50 10° NNE visible
13 Dec 9.3 01:57:56 10° S 02:05:20 23° SE 02:12:31 10° E visible
13 Dec 7.4 04:00:16 10° SW 04:10:13 76° NW 04:19:46 10° NE visible
14 Dec 9.4 01:33:14 10° S 01:40:04 20° SE 01:46:44 10° E visible
14 Dec 7.4 03:35:03 10° SW 03:45:04 84° NW 03:54:41 10° NE visible
15 Dec 9.5 01:08:37 10° S 01:14:48 18° SE 01:20:50 10° E visible
15 Dec 7.4 03:09:50 10° SW 03:19:54 87° SE 03:29:33 10° NE visible
15 Dec 8.6 05:18:30 10° W 05:24:40 18° NW 05:30:44 10° N visible
16 Dec 9.7 00:44:08 10° SSE 00:58:23 - E 00:46:33 14° SSE visible
16 Dec 7.7 02:56:44 62° ENE 02:56:44 62° ENE 03:04:24 10° NE visible
16 Dec 8.5 04:55:04 16° W 04:59:27 21° NW 05:06:10 10° N visible
